This demonstration page uses our WeatherBlox Daily Observations layout. Learn more.

39.29038, -76.61219

Hourly Observations for April 18, 2018

Temp ( °F °C ) Dew Point ( °F °C ) Humidity (%) Winds ( mph kmh ) Pressure ( in mb ) Visibility ( mi km ) Precip ( " mm )
12:54 am 00:54 undefined 41 5 24 -4.4 51 51 undefined N/A 29.88 1012 N/A 0 0
1:54 am 01:54 undefined 41 5 23 -5 49 49 undefined N/A 29.88 1012 N/A 0 0
2:54 am 02:54 undefined 40 4.4 23 -5 51 51 undefined N/A 29.88 1012 N/A 0 0
3:54 am 03:54 undefined 39 3.9 23 -5 53 53 undefined N/A 29.88 1012 N/A 0 0
4:54 am 04:54 undefined 38 3.3 24 -4.4 57 57 undefined N/A 29.87 1011 N/A 0 0
5:54 am 05:54 undefined 37 2.8 23 -5 57 57 undefined N/A 29.89 1012 N/A 0 0
6:54 am 06:54 undefined 37 2.8 23 -5 57 57 undefined N/A 29.92 1013 N/A 0 0
7:54 am 07:54 undefined 41 5 24 -4.4 51 51 undefined N/A 29.97 1015 N/A 0 0
8:54 am 08:54 undefined 43 6.1 23 -5 45 45 undefined N/A 29.96 1015 N/A 0 0
9:54 am 09:54 undefined 45 7.2 24 -4.4 44 44 undefined N/A 29.95 1014 N/A 0 0
10:54 am 10:54 undefined 49 9.4 25 -3.9 39 39 undefined N/A 29.93 1014 N/A 0 0
11:54 am 11:54 undefined 52 11.1 24 -4.4 34 34 undefined N/A 29.89 1012 N/A 0 0
12:54 pm 12:54 undefined 54 12.2 25 -3.9 33 33 undefined N/A 29.87 1012 N/A 0 0
1:54 pm 13:54 undefined 57 13.9 26 -3.3 30 30 undefined N/A 29.86 1011 N/A 0 0
2:54 pm 14:54 undefined 60 15.6 29 -1.7 31 31 undefined N/A 29.85 1011 N/A 0 0
3:54 pm 15:54 undefined 62 16.7 30 -1.1 30 30 undefined N/A 29.84 1011 N/A 0 0
4:54 pm 16:54 undefined 60 15.6 34 1.1 38 38 undefined N/A 29.8 1009 N/A 0 0
5:54 pm 17:54 undefined 58 14.4 36 2.2 44 44 undefined N/A 29.8 1009 N/A 0 0
6:54 pm 18:54 undefined 58 14.4 36 2.2 44 44 undefined N/A 29.78 1009 N/A 0 0
7:54 pm 19:54 undefined 55 12.8 37 2.8 51 51 undefined N/A 29.78 1008 N/A 0 0
8:54 pm 20:54 undefined 55 12.8 39 3.9 55 55 undefined N/A 29.76 1008 N/A 0 0
9:54 pm 21:54 undefined 54 12.2 40 4.4 59 59 undefined N/A 29.76 1008 N/A 0 0
10:54 pm 22:54 undefined 54 12.2 42 5.6 64 64 undefined N/A 29.74 1007 N/A 0 0
11:54 pm 23:54 undefined 54 12.2 42 5.6 64 64 undefined N/A 29.7 1006 N/A 0 0

Powered by AerisWeather